TimeEDT,TemperatureF,Dew PointF,Humidity,Sea Level PressureIn,VisibilityMPH,Wind Direction,Wind SpeedMPH,Gust SpeedMPH,PrecipitationIn,Events,Conditions,WindDirDegrees,DateUTC
12:15 AM,47.5,21.9,36,30.14,10.0,Calm,Calm,-,N/A,,Clear,0,2013-04-03 04:15:00
12:35 AM,48.4,21.4,35,30.13,10.0,Calm,Calm,-,N/A,,Clear,0,2013-04-03 04:35:00
12:55 AM,47.3,20.5,35,30.15,10.0,Calm,Calm,-,N/A,,Clear,0,2013-04-03 04:55:00
1:15 AM,47.5,20.7,35,30.16,10.0,Calm,Calm,-,N/A,,Clear,0,2013-04-03 05:15:00
1:35 AM,47.7,21.2,35,30.16,10.0,Calm,Calm,-,N/A,,Clear,0,2013-04-03 05:35:00
1:55 AM,47.1,22.6,38,30.18,10.0,NNE,3.5,-,N/A,,Scattered Clouds,20,2013-04-03 05:55:00
2:15 AM,46.6,20.7,36,30.18,10.0,NNE,3.5,-,N/A,,Clear,20,2013-04-03 06:15:00
2:35 AM,45.5,21.2,38,30.18,10.0,NNE,3.5,-,N/A,,Scattered Clouds,30,2013-04-03 06:35:00
2:55 AM,45.0,20.5,38,30.18,10.0,Calm,Calm,-,N/A,,Scattered Clouds,0,2013-04-03 06:55:00
3:15 AM,44.2,19.4,37,30.18,10.0,NE,3.5,-,N/A,,Clear,40,2013-04-03 07:15:00
3:35 AM,43.9,18.1,36,30.18,10.0,NE,5.8,-,N/A,,Clear,40,2013-04-03 07:35:00
3:55 AM,43.7,17.6,35,30.18,10.0,North,3.5,-,N/A,,Clear,10,2013-04-03 07:55:00
4:15 AM,42.8,17.8,37,30.18,10.0,NNE,3.5,-,N/A,,Clear,20,2013-04-03 08:15:00
4:35 AM,41.9,17.2,37,30.19,10.0,NNE,3.5,-,N/A,,Clear,20,2013-04-03 08:35:00
4:55 AM,41.4,17.1,38,30.19,10.0,North,3.5,-,N/A,,Clear,360,2013-04-03 08:55:00
5:15 AM,40.5,17.1,39,30.19,10.0,Calm,Calm,-,N/A,,Clear,0,2013-04-03 09:15:00
5:35 AM,40.1,17.2,40,30.19,10.0,North,3.5,-,N/A,,Clear,10,2013-04-03 09:35:00
5:55 AM,39.6,16.9,40,30.20,10.0,NNE,3.5,-,N/A,,Clear,20,2013-04-03 09:55:00
6:15 AM,39.4,16.7,40,30.19,10.0,NNE,4.6,-,N/A,,Clear,20,2013-04-03 10:15:00
6:35 AM,39.2,16.5,40,30.20,10.0,North,5.8,-,N/A,,Scattered Clouds,10,2013-04-03 10:35:00
6:55 AM,38.8,16.5,40,30.21,10.0,NNE,3.5,-,N/A,,Scattered Clouds,30,2013-04-03 10:55:00
7:15 AM,38.5,16.2,40,30.24,10.0,Calm,Calm,-,N/A,,Clear,0,2013-04-03 11:15:00
7:35 AM,38.3,16.2,41,30.24,10.0,North,3.5,-,N/A,,Clear,10,2013-04-03 11:35:00
7:55 AM,39.2,16.7,40,30.25,10.0,Calm,Calm,-,N/A,,Clear,0,2013-04-03 11:55:00
8:15 AM,40.5,17.2,39,30.26,10.0,North,4.6,-,N/A,,Clear,10,2013-04-03 12:15:00
8:35 AM,41.7,17.8,38,30.27,10.0,NNE,4.6,-,N/A,,Clear,20,2013-04-03 12:35:00
8:55 AM,43.9,18.9,37,30.28,10.0,NNE,3.5,-,N/A,,Clear,30,2013-04-03 12:55:00
9:15 AM,44.6,17.2,33,30.29,10.0,NNE,8.1,-,N/A,,Clear,30,2013-04-03 13:15:00
9:35 AM,45.5,17.6,33,30.29,10.0,NNE,6.9,-,N/A,,Clear,30,2013-04-03 13:35:00
9:55 AM,46.2,18.1,33,30.29,10.0,NE,5.8,-,N/A,,Clear,50,2013-04-03 13:55:00
10:15 AM,46.4,17.1,31,30.28,10.0,NNE,9.2,-,N/A,,Clear,20,2013-04-03 14:15:00
10:35 AM,47.8,17.8,30,30.28,10.0,NNE,9.2,-,N/A,,Clear,20,2013-04-03 14:35:00
10:55 AM,47.5,16.0,28,30.27,10.0,NNE,6.9,-,N/A,,Clear,30,2013-04-03 14:55:00
11:15 AM,48.7,17.6,29,30.28,10.0,NNE,8.1,-,N/A,,Clear,20,2013-04-03 15:15:00
11:35 AM,48.7,17.4,29,30.26,10.0,NNE,8.1,-,N/A,,Clear,30,2013-04-03 15:35:00
11:55 AM,50.0,18.3,29,30.26,10.0,NE,6.9,-,N/A,,Clear,50,2013-04-03 15:55:00
12:15 PM,50.9,19.4,29,30.25,10.0,West,5.8,-,N/A,,Clear,280,2013-04-03 16:15:00
12:35 PM,52.0,20.5,29,30.26,10.0,ENE,6.9,-,N/A,,Clear,70,2013-04-03 16:35:00
12:55 PM,52.7,19.6,27,30.25,10.0,WNW,3.5,-,N/A,,Clear,300,2013-04-03 16:55:00
1:15 PM,52.5,18.7,26,30.25,10.0,WSW,4.6,-,N/A,,Clear,250,2013-04-03 17:15:00
1:35 PM,53.1,19.9,27,30.24,10.0,North,4.6,-,N/A,,Clear,360,2013-04-03 17:35:00
2:15 PM,54.9,20.3,26,30.22,10.0,SSW,6.9,-,N/A,,Clear,200,2013-04-03 18:15:00
2:35 PM,54.3,20.5,27,30.21,10.0,North,3.5,-,N/A,,Clear,350,2013-04-03 18:35:00
2:55 PM,55.8,21.7,27,30.21,10.0,West,3.5,-,N/A,,Clear,280,2013-04-03 18:55:00
3:15 PM,56.5,21.7,26,30.21,10.0,North,6.9,-,N/A,,Clear,10,2013-04-03 19:15:00
3:35 PM,56.5,20.8,25,30.21,10.0,WNW,4.6,-,N/A,,Clear,290,2013-04-03 19:35:00
3:55 PM,56.8,21.2,25,30.21,10.0,Calm,Calm,-,N/A,,Clear,0,2013-04-03 19:55:00
4:15 PM,57.6,19.9,23,30.21,10.0,West,4.6,-,N/A,,Clear,270,2013-04-03 20:15:00
4:35 PM,58.1,21.0,24,30.21,10.0,NNW,3.5,-,N/A,,Clear,330,2013-04-03 20:35:00
4:55 PM,58.1,20.7,23,30.21,10.0,Calm,Calm,-,N/A,,Clear,0,2013-04-03 20:55:00
5:15 PM,57.4,20.3,24,30.21,10.0,Calm,Calm,-,N/A,,Clear,0,2013-04-03 21:15:00
5:35 PM,56.8,20.7,25,30.21,10.0,North,3.5,-,N/A,,Clear,360,2013-04-03 21:35:00
5:55 PM,56.3,20.1,24,30.21,10.0,NNE,3.5,-,N/A,,Clear,20,2013-04-03 21:55:00
6:15 PM,56.3,21.0,25,30.21,10.0,Calm,Calm,-,N/A,,Clear,0,2013-04-03 22:15:00
6:35 PM,55.8,20.7,26,30.21,10.0,Calm,Calm,-,N/A,,Clear,0,2013-04-03 22:35:00
6:55 PM,55.4,19.6,25,30.21,10.0,Calm,Calm,-,N/A,,Clear,0,2013-04-03 22:55:00
7:15 PM,54.3,22.3,29,30.21,10.0,Calm,Calm,-,N/A,,Clear,0,2013-04-03 23:15:00
7:35 PM,52.5,23.2,32,30.21,10.0,Calm,Calm,-,N/A,,Clear,0,2013-04-03 23:35:00
7:55 PM,51.1,21.2,31,30.21,10.0,Calm,Calm,-,N/A,,Clear,0,2013-04-03 23:55:00
8:15 PM,50.9,20.7,30,30.22,10.0,Calm,Calm,-,N/A,,Clear,0,2013-04-04 00:15:00
8:35 PM,49.8,24.3,37,30.23,10.0,Calm,Calm,-,N/A,,Clear,0,2013-04-04 00:35:00
8:55 PM,49.1,21.6,34,30.23,10.0,Calm,Calm,-,N/A,,Clear,0,2013-04-04 00:55:00
9:15 PM,47.5,22.6,38,30.23,10.0,Calm,Calm,-,N/A,,Clear,0,2013-04-04 01:15:00
9:35 PM,47.3,24.6,41,30.25,10.0,Calm,Calm,-,N/A,,Clear,0,2013-04-04 01:35:00
9:55 PM,46.8,25.3,43,30.26,10.0,Calm,Calm,-,N/A,,Clear,0,2013-04-04 01:55:00
10:15 PM,48.0,25.5,41,30.28,10.0,Calm,Calm,-,N/A,,Clear,0,2013-04-04 02:15:00
10:35 PM,46.9,26.4,45,30.28,10.0,Calm,Calm,-,N/A,,Clear,0,2013-04-04 02:35:00
10:55 PM,48.4,24.8,40,30.27,10.0,NE,3.5,-,N/A,,Clear,40,2013-04-04 02:55:00
11:15 PM,48.6,24.3,39,30.28,10.0,NNE,3.5,-,N/A,,Clear,20,2013-04-04 03:15:00
11:35 PM,49.1,24.3,38,30.28,10.0,NNE,4.6,-,N/A,,Clear,20,2013-04-04 03:35:00
11:55 PM,48.6,23.9,38,30.27,10.0,NNE,3.5,-,N/A,,Clear,30,2013-04-04 03:55:00